星链-31166 (STARLINK-31166 )

导读

STARLINK-31166是美国SpaceX公司星链(Starlink)卫星互联网项目的成员,于2024年1月15日发射入轨,隶属于全球规模最大的低轨卫星互联网星座。 它运行在近地轨道,与数千颗同系列卫星组网,共同为全球偏远、传统网络无法覆盖的区域提供高速低延迟的宽带互联网服务,也可支持应急通信与特殊场景联网需求,是星链扩展全球网络覆盖计划的一部分。

基本信息
目录编号:
58789
目录名称:
STARLINK-31166
国际标识:
2024-012C
轨道中心:
EARTH
卫星名称:
星链-31166
卫星全名:
星链-31166 (STARLINK-31166 )
卫星状态:
在轨 (已飞行885 天)
发射日期:
2024-01-15 UTC
国别 :
美国 (US)
星等 :
--
轨道信息
数据来源 国际轨道数据
星历时间: 2026-06-17T10:47:12+0800
1天前
查看轨道信息
半长轴: 6861.202km
偏心率: 0.0001161
轨道倾角: 43.004°
近地点辐角 272.326°
升交点赤经 323.595°
平近点角 87.745°
近地点: 482.268km
远地点: 483.862km
周期: 94.267分钟
每日圈数: 15.275747
详细信息
固有亮度:
5
最大亮度:
0.3
卫星平台:
Starlink v2.0 mini
覆盖范围:
全球
运营商:
太空探索技术公司
运营商所在国:
美国
制造商(研发单位):
太空探索技术公司
制造商所在国:
美国
使用方式:
暂无
卫星简介
星链(Starlink)计划是由太空探索技术公司(SpaceX)提出的一个巨型低轨卫星互联网星座项目,计划在2019年至2024年间在太空搭建由约1.2万颗卫星组成的“星链”网络,其中1584颗将部署在地球上空550千米处的近地轨道,并从2020年开始工作。该卫星仍在工作。
2D轨道图
3D轨道图
轨道高度分析图
轨道倾角分析图
轨道综合分析图
查看轨道综合分析图